sat.trackr.live / text

‹ back to catalog

HULIANWANG DIGUI-63

NORAD 65169 · 2025-174F

PAYLOAD ACTIVE UNKNOWN

§ Identity

Operator
Country
PRC
Launch date
2025-08-13
Launch site
WSC
Launch vehicle
Mass (kg)
RCS (m²)

External: N2YO · Heavens-Above · Gunter

§ Orbital elements

Epoch: 2026-09-21T22:20:33.839808Z

Period
108.73 min
Inclination
86.4988°
Eccentricity
0.0002414
Mean motion
13.24396177 rev/d
Perigee alt
1,166.2 km
Apogee alt
1,169.8 km
Semi-major
7,546.1 km
B*
2.2570e-5
RAAN
219.3601°
Arg perigee
74.7909°
Mean anomaly
285.3492°
Rev number
5,359

§ Raw data

HULIANWANG DIGUI-631 65169U 25174F   26264.93094722  .00000024  00000+0  22570-4 0  99972 65169  86.4988 219.3601 0002414  74.7909 285.3492 13.24396177 53599

JSON: /api/v1/satellites/65169 · /tle

For live sub-satellite position, see the globe view (requires WebGL).

§ Visibility from observer

Set your observer location to see the next 7 days of passes ≥ 10°. The values pass through the URL so the page stays shareable.

No JS? Fill the form by hand. The geolocation button needs JavaScript.